Tracking 33744 objects as of 12-Apr-2026
HD Live streaming from Space Station
objects crossing your sky now

THORAD AGENA D DEB

Track THORAD AGENA D DEB now!
10-day predictions


NORAD ID: 4607
Int'l Code: 1970-025K
Perigee: 1,065.6 km
Apogee: 2,036.8 km
Inclination: 100.2 °
Period: 117.0 minutes
Semi major axis: 7922 km
RCS: 0.5865 m2 (medium)
Launch date: April 8, 1970
Source: United States (US)
Launch site: AIR FORCE WESTERN TEST RANGE (AFWTR)

Note: This is SATELLITE DEBRIS
Your satellite tracking list
Your tracking list is empty




NASA's NSSDC Master Catalog

Two Line Element Set (TLE):
1 04607U 70025K   26102.24653439 -.00000138  00000-0 -44916-3 0  9999
2 04607 100.2117  23.2322 0612973 299.7449 220.6821 12.31208225513171
Source of the keplerian elements: AFSPC